AirNav   Everest Fuels
 
 386 users online  

7GA4 Danville Airpark
Danville, Georgia, USA

GOING TO DANVILLE?


FAA INFORMATION EFFECTIVE 07 NOVEMBER 2019

Location

FAA Identifier: 7GA4
Lat/Long: 32-34-51.5590N 083-16-03.5760W
32-34.859317N 083-16.059600W
32.5809886,-83.2676600
(estimated)
Elevation: 459 ft. / 139.9 m (surveyed)
Variation: 03W (1985)
From city: 2 miles SW of DANVILLE, GA
Time zone: UTC -5 (UTC -4 during Daylight Saving Time)
Zip code: 31017

Airport Operations

Airport use: Private use. Permission required prior to landing
Activation date: 03/1980
Control tower: no
ARTCC: ATLANTA CENTER
FSS: MACON FLIGHT SERVICE STATION
Attendance: DAYLIGHT HOURS
Wind indicator: yes
Segmented circle: no

Airport Communications

WX AWOS-3PT at 48A (11 nm S): 120.975 (478-271-5897)
WX AWOS-3 at DBN (14 nm E): 118.425 (478-277-9051)

Nearby radio navigation aids

VOR radial/distance  VOR name  Freq  Var
MCNr108/20.3MACON VORTAC114.2001E
DBNr278/22.2DUBLIN VORTAC113.1005W
VNAr027/24.9VIENNA VORTAC116.5001E

 
NDB name  Hdg/Dist  Freq  Var  ID
CREKE298/14.225104WDB -.. -...
EASTMAN352/27.636604WEZM . --.. --
CULVR193/34.738004WUMB ..- -- -...
MC RAE329/35.128003WMQW -- --.- .--
MONTEZUMA075/39.642604WIZS .. --.. ...

Airport Services

Runway Information

Runway 9/27

Dimensions: 2400 x 60 ft. / 732 x 18 m
Surface: turf
RUNWAY 9  RUNWAY 27
Traffic pattern: leftleft
Obstructions: trees, 300 ft. from runwaypline, 100 ft. from runway

Airport Ownership and Management from official FAA records

Ownership: Privately-owned
Owner: DIANE & BILL NEAL TRUST
323 AIRPORT RD
DANVILLE, GA 31017
Phone 912-962-3609
Manager: B. NEAL
323 AIRPORT RD
DANVILLE, GA 31017
Phone 912-962-3609
ADDITIONAL CONTACT E. NEAL 954-684-0236

Airport Operational Statistics

Aircraft based on the field: 2
Single engine airplanes: 1
Ultralights: 1
    

Additional Remarks

FOR CD CTC ATLANTA APCH AT 678-364-6132, WHEN APCH CLSD CTC ATLANTA ARTCC AT 770-210-7692.

Instrument Procedures

There are no published instrument procedures at 7GA4.

Some nearby airports with instrument procedures:

48A - Cochran Airport (11 nm S)
KDBN - W H 'Bud' Barron Airport (14 nm E)
KWRB - Robins Air Force Base (17 nm W)
KMCN - Middle Georgia Regional Airport (20 nm W)
KMAC - Macon Downtown Airport (21 nm NW)
 
Loc | Ops | Rwys | IFR | FBO | Links
Com | Nav | Svcs | Stats | Notes
Area around 7GA4 (Danville Airpark)
 
Road maps at: MapQuest Bing Google
 
Aerial photo
No photo
 
Sectional chart

 
Airport distance calculator
Flying to Danville Airpark? Find the distance to fly.

From to 7GA4

Sunrise and sunset
Times for 13-Nov-2019
 Local
(UTC-5)
 Zulu
(UTC)
Morning civil twilight06:3611:36
Sunrise07:0212:02
Sunset17:3322:33
Evening civil twilight17:5922:59

Current date and time
Zulu (UTC)  13-Nov-2019 11:09:52
Local (UTC-5)  13-Nov-2019 06:09:52
 
METAR
KDBN 
14nm E 
131055Z AUTO 04005KT 10SM CLR M01/M05 A3033 RMK AO2
KWRB 
16nm W 
131056Z 00000KT 10SM CLR M02/M04 A3030 RMK AO2A SLP266 T10231045
KMCN 
20nm W 
131053Z AUTO 06004KT 10SM CLR M03/M06 A3030 RMK AO2 SLP262 T10281056
KEZM 
23nm S 
131055Z AUTO 05007KT 10SM CLR M01/M04 A3032 RMK AO2 T10071045
KPXE 
26nm W 
131055Z AUTO 03007KT 10SM CLR M02/M04 A3031 RMK AO2 T10221045
TAF
KWRB 
16nm W 
130500Z 1305/1411 36010KT 9999 SKC QNH3025INS BECMG 1314/1315 06012KT 9999 FEW250 QNH3025INS BECMG 1323/1324 VRB06KT 9999 SCT250 QNH3029INS TX09/1320Z TNM03/1311Z
NOTAMs
Click for the latest NOTAMs
NOTAMs are issued by the DoD/FAA and will open in a separate window not controlled by AirNav.

 

 
 

Would you like to see your business listed on this page?

 If your business provides an interesting product or service to pilots, flight crews, aircraft, or users of the Danville Airpark, you should consider listing it here.  To start the listing process, click on the button below
 
Add a business
 

Other Pages about Danville Airpark

Update a link
 
Copyright © AirNav, LLC. All rights reserved. Privacy Policy  Contact